Yosemite National Park, California, United States (95389)
Lat: 37.54N, Lon: 119.84W
Wx Zone: CAZ093
Local Info
Past Weather Observations for Wednesday, February 3, 2016

NOTE: This archive is for the closest National Weather Service station to Yosemite National Park. Information may differ from the station used for current weather conditions.

Click here for Long-term Archive

Time Weather Temperature Dewpoint Humidity Pressure Winds Precip Visibility
23:53
Clear
39°F / 4°C 37°F / 3°C 93% 30.45 in
(1031 mb)
Calm - 7SM
22:53
Clear
45°F / 7°C 39°F / 4°C 81% 30.45 in
(1031 mb)
ENE 3.5 mph
(ENE 6 kph)
- 7SM
21:53
Clear
45°F / 7°C 39°F / 4°C 81% 30.45 in
(1031 mb)
N 3.5 mph
(N 6 kph)
- 8SM
20:53
Clear
46°F / 8°C 41°F / 5°C 82% 30.42 in
(1030 mb)
Calm - 9SM
19:53
Partly Cloudy
50°F / 10°C 41°F / 5°C 71% 30.42 in
(1030 mb)
NW 4.6 mph
(NW 7 kph)
- 10SM
18:53
Clear
50°F / 10°C 43°F / 6°C 76% 30.39 in
(1029 mb)
Calm - 10SM
17:53
Overcast
50°F / 10°C 43°F / 6°C 76% 30.39 in
(1029 mb)
Calm - 10SM
16:53
Clear
52°F / 11°C 39°F / 4°C 62% 30.36 in
(1028 mb)
SE 3.5 mph
(SE 6 kph)
- 10SM
15:53
Clear
54°F / 12°C 39°F / 4°C 58% 30.36 in
(1028 mb)
S 4.6 mph
(S 7 kph)
- 10SM
14:53
Clear
54°F / 12°C 39°F / 4°C 58% 30.36 in
(1028 mb)
S 6.9 mph
(S 11 kph)
- 10SM
13:53
Clear
54°F / 12°C 41°F / 5°C 63% 30.36 in
(1028 mb)
ESE 5.8 mph
(ESE 9 kph)
- 10SM
12:53
Clear
52°F / 11°C 43°F / 6°C 72% 30.39 in
(1029 mb)
S 5.8 mph
(S 9 kph)
- 10SM
11:53
Partly Cloudy
50°F / 10°C 41°F / 5°C 71% 30.42 in
(1030 mb)
S 5.8 mph
(S 9 kph)
- 10SM
10:53
Clear
46°F / 8°C 39°F / 4°C 76% 30.42 in
(1030 mb)
SE 6.9 mph
(SE 11 kph)
- 10SM
09:53
Clear
43°F / 6°C 37°F / 3°C 81% 30.45 in
(1031 mb)
Variable 3.5 mph
(Variable 6 kph)
- 10SM
08:53
Clear
39°F / 4°C 36°F / 2°C 87% 30.42 in
(1030 mb)
SSE 4.6 mph
(SSE 7 kph)
- 10SM
08:03
Clear
Fog And Mist
34°F / 1°C 34°F / 1°C 100% 30.39 in
(1029 mb)
Calm - 4SM
07:55
Partly Cloudy
Fog And Mist
34°F / 1°C 32°F / 0°C 93% 30.39 in
(1029 mb)
E 3.5 mph
(E 6 kph)
- 2SM
07:53
Obscured
Fog And Mist
34°F / 1°C 32°F / 0°C 93% 30.39 in
(1029 mb)
E 3.5 mph
(E 6 kph)
- 1SM
07:30
Obscured
Fog
32°F / 0°C 32°F / 0°C 100% 30.39 in
(1029 mb)
Calm - 1/4SM
07:22
Obscured
Fog And Mist
32°F / 0°C 30°F / -1°C 93% 30.39 in
(1029 mb)
Calm - 3/4SM
07:19
Partly Cloudy
Fog And Mist
34°F / 1°C 30°F / -1°C 87% 30.39 in
(1029 mb)
Calm - 1 1/4SM
06:53
Clear
Fog And Mist
32°F / 0°C 32°F / 0°C 100% 30.39 in
(1029 mb)
Calm - 5SM
05:53
Clear
34°F / 1°C 32°F / 0°C 93% 30.36 in
(1028 mb)
Calm - 8SM
04:53
Clear
32°F / 0°C 30°F / -1°C 93% 30.36 in
(1028 mb)
Calm - 9SM
03:53
Clear
34°F / 1°C 32°F / 0°C 93% 30.33 in
(1027 mb)
Calm - 10SM
02:53
Clear
34°F / 1°C 34°F / 1°C 100% 30.36 in
(1028 mb)
Calm - 9SM
01:53
Clear
36°F / 2°C 34°F / 1°C 93% 30.33 in
(1027 mb)
Calm - 8SM
00:53
Clear
36°F / 2°C 34°F / 1°C 93% 30.33 in
(1027 mb)
E 3.5 mph
(E 6 kph)
- 9SM
Time Weather Temperature Dewpoint Humidity Pressure Winds Precip Visibility


Weather for websites

WeatherForYou.com, LLC is not responsible for any damages or problems caused by this service. Current weather conditions are obtained from the closest station including government and personal stations which may have varying degrees of accuracy. Weather forecasts are derived from the NOAA NDFD. Like all things, this site belongs to Jesus Christ... He just trusts us to maintain it. If you have any questions or comments email webmaster@weatherforyou.com

Copyright © 2016, WeatherForYou.com LLC. All rights reserved.